This is the latest recevied weather packets stored in our database for station/object IK3ZGB. If no packets are shown the sender has not sent any weather packets the latest 10 day(s).
| Time | Temp. | Humidity | Pressure | Rain* | Wind** | Luminosity | Snow |
|---|---|---|---|---|---|---|---|
| 1777490898 | 15° C | 78% | 1020.7 hPa | - | - | - | - |
| 1777490298 | 15.56° C | 77% | 1020.3 hPa | - | - | - | - |
| 1777489989 | 15.56° C | 77% | 1020.3 hPa | - | - | - | - |
| 1777489391 | 15.56° C | 76% | 1020.1 hPa | - | - | - | - |
| 1777488792 | 16.11° C | 76% | 1020.2 hPa | - | - | - | - |
| 1777488192 | 16.11° C | 75% | 1020.1 hPa | - | - | - | - |
| 1777487591 | 16.11° C | 76% | 1019.9 hPa | - | - | - | - |
| 1777486990 | 16.67° C | 75% | 1019.6 hPa | - | - | - | - |
| 1777486392 | 16.67° C | 74% | 1019.3 hPa | - | - | - | - |
| 1777485791 | 16.67° C | 74% | 1019.2 hPa | - | - | - | - |
| 1777485192 | 16.67° C | 75% | 1018.9 hPa | - | - | - | - |
| 1777484591 | 17.22° C | 75% | 1019 hPa | - | - | - | - |
| 1777483992 | 17.22° C | 74% | 1018.8 hPa | - | - | - | - |
| 1777483391 | 17.78° C | 73% | 1018.8 hPa | - | - | - | - |
| 1777482791 | 17.78° C | 70% | 1018.7 hPa | - | - | - | - |
| 1777482191 | 17.78° C | 68% | 1018.6 hPa | - | - | - | - |
| 1777481589 | 17.78° C | 68% | 1018.6 hPa | - | - | - | - |
| 1777480991 | 17.78° C | 69% | 1018.8 hPa | - | - | - | - |
| 1777480391 | 17.78° C | 69% | 1018.7 hPa | - | - | - | - |
| 1777479791 | 17.78° C | 68% | 1018.6 hPa | - | - | - | - |
| 1777479190 | 17.78° C | 68% | 1018.5 hPa | - | - | - | - |
| 1777478590 | 17.78° C | 69% | 1018.8 hPa | - | - | - | - |
| 1777477990 | 18.33° C | 68% | 1018.5 hPa | - | - | - | - |
| 1777477390 | 17.78° C | 68% | 1018.5 hPa | - | - | - | - |
| 1777476790 | 17.78° C | 68% | 1018.6 hPa | - | - | - | - |
* Rain since midnight (hover to see other rain measurements)
** Current wind speed in m/s (hover to see current wind gust speed)